Location: Peterborough
(44.3091°N, 78.3197°W)
Time: 04:40:43
(UTC-05:00)

S-56A Canister/Altair - Visible Passes

Search period start: 11 December 2023 00:00
Search period end: 21 December 2023 00:00
Orbit: 640 x 2489 km, 38.8° (Epoch: 10 December)

Date Brightness Start Highest point End Pass type
(mag) Time Alt. Az. Time Alt. Az. Time Alt. Az.
15 Dec 10.9 06:52:01 10° SSW 06:57:56 20° SSE 07:02:35 10° ESE visible
16 Dec 11.0 06:18:39 10° S 06:24:41 19° SSE 06:29:28 10° ESE visible
17 Dec 11.1 05:45:19 10° S 05:51:23 18° SSE 05:56:15 10° ESE visible
18 Dec 11.1 05:12:04 10° S 05:18:02 17° SSE 05:22:56 10° ESE visible
18 Dec 10.0 07:13:40 10° SW 07:22:06 37° SSE 07:27:59 10° E visible
19 Dec 11.2 04:38:55 10° S 04:44:39 15° SE 04:49:28 10° ESE visible
19 Dec 10.1 06:39:53 10° SW 06:48:48 36° SSE 06:55:04 10° E visible
20 Dec 11.3 04:05:56 10° S 04:11:13 14° SE 04:15:48 10° ESE visible
20 Dec 10.2 06:06:05 10° SW 06:15:27 34° SSE 06:22:05 10° E visible
